Location: Poughquag
(41.6090°N, 73.6820°W)
Time: 12:45:27
(UTC-04:00)

Tiros 1 despin weight - Pass Details

Date: 29 May 2020
Orbit: 593 x 642 km, 48.2° (Epoch: 07 July)

Event Time Altitude Azimuth Distance (km) Brightness Sun altitude
Rises 13:53:36 0° 275° (W) 2,901 ? 66.3°
Reaches altitude 10° 13:56:04 10° 283° (WNW) 1,987 ? 66.1°
Maximum altitude 14:00:20 37° 352° (N) 952 ? 65.5°
Drops below altitude 10° 14:04:32 10° 61° (ENE) 1,959 ? 65.0°
Sets 14:06:57 0° 69° (ENE) 2,855 ? 64.7°
